IBS17RA LEMD-LEIB

Flight info

Callsign IBS17RA
Flight time 0h 48m
Altitude 32000
Route NANDO M871 LASPO Z224 VARUT
Aircraft A320/M-SDE3FGHIRWY/LB1

Departure

Time 2026-05-06 18:04
Airport Adolfo Suárez Madrid–Barajas Airport (LEMD)

Arrival

Time 2026-05-06 18:53
Airport Ibiza Airport (LEIB)
Time Latitude Longitude Altitude Speed Heading
2026-05-06 17:10 40.49119 -3.58966 2022 ft 0 kts 269°
2026-05-06 17:26 40.49119 -3.58965 2022 ft 0 kts 269°
2026-05-06 17:48 40.49120 -3.58933 2026 ft 4 kts 269°
2026-05-06 17:48 40.49120 -3.58905 2028 ft 4 kts 252°
2026-05-06 17:49 40.49134 -3.58883 2031 ft 4 kts 191°
2026-05-06 17:49 40.49156 -3.58881 2033 ft 1 kts 179°
2026-05-06 17:49 40.49157 -3.58881 2033 ft 0 kts 179°
2026-05-06 17:52 40.49153 -3.58881 2026 ft 1 kts 179°
2026-05-06 17:53 40.49133 -3.58881 2031 ft 4 kts 179°
2026-05-06 17:53 40.49092 -3.58880 2022 ft 7 kts 180°
2026-05-06 17:53 40.49032 -3.58881 2026 ft 10 kts 179°
2026-05-06 17:53 40.48959 -3.58880 2030 ft 11 kts 179°
2026-05-06 17:54 40.48875 -3.58879 2022 ft 13 kts 179°
2026-05-06 17:54 40.48782 -3.58876 2022 ft 12 kts 166°
2026-05-06 17:54 40.48759 -3.58798 2022 ft 10 kts 89°
2026-05-06 17:54 40.48759 -3.58695 2022 ft 12 kts 90°
2026-05-06 17:55 40.48759 -3.58578 2021 ft 14 kts 89°
2026-05-06 17:55 40.48760 -3.58428 2016 ft 18 kts 90°
2026-05-06 17:55 40.48761 -3.58253 2010 ft 20 kts 89°
2026-05-06 17:55 40.48762 -3.58104 2005 ft 12 kts 88°
2026-05-06 17:56 40.48810 -3.58051 2003 ft 11 kts
2026-05-06 17:56 40.48858 -3.57982 2000 ft 14 kts 89°
2026-05-06 17:56 40.48857 -3.57832 1995 ft 19 kts 89°
2026-05-06 17:56 40.48858 -3.57647 1991 ft 21 kts 90°
2026-05-06 17:57 40.48859 -3.57452 1987 ft 22 kts 89°
2026-05-06 17:57 40.48859 -3.57241 1984 ft 24 kts 90°
2026-05-06 17:57 40.48860 -3.57026 1980 ft 23 kts 86°
2026-05-06 17:57 40.48863 -3.56821 1976 ft 23 kts 90°
2026-05-06 17:58 40.48863 -3.56603 1972 ft 21 kts 89°
2026-05-06 17:58 40.48863 -3.56434 1967 ft 18 kts 90°
2026-05-06 17:58 40.48865 -3.56293 1963 ft 12 kts 85°
2026-05-06 17:58 40.48926 -3.56244 1962 ft 11 kts 359°
2026-05-06 17:59 40.48999 -3.56245 1962 ft 11 kts 360°
2026-05-06 17:59 40.49086 -3.56246 1962 ft 14 kts 360°
2026-05-06 17:59 40.49195 -3.56246 1962 ft 17 kts 360°
2026-05-06 17:59 40.49278 -3.56246 1961 ft 19 kts 360°
2026-05-06 18:00 40.49460 -3.56247 1961 ft 20 kts 359°
2026-05-06 18:00 40.49556 -3.56248 1961 ft 21 kts 360°
2026-05-06 18:00 40.49699 -3.56254 1962 ft 16 kts 357°
2026-05-06 18:00 40.49778 -3.56254 1962 ft 11 kts
2026-05-06 18:01 40.49865 -3.56252 1961 ft 13 kts
2026-05-06 18:01 40.49938 -3.56218 1960 ft 10 kts 66°
2026-05-06 18:01 40.49940 -3.56119 1958 ft 9 kts 90°
2026-05-06 18:01 40.49940 -3.56097 1958 ft 0 kts 90°
2026-05-06 18:02 40.49940 -3.56092 1958 ft 3 kts 89°
2026-05-06 18:03 40.49945 -3.56039 1958 ft 8 kts 75°
2026-05-06 18:03 40.49979 -3.55968 1959 ft 8 kts 47°
2026-05-06 18:03 40.50021 -3.55930 1959 ft 7 kts 22°
2026-05-06 18:03 40.50079 -3.55921 1960 ft 12 kts
2026-05-06 18:04 40.50325 -3.55923 1962 ft 70 kts 359°
2026-05-06 18:04 40.51036 -3.55929 1959 ft 132 kts 360°
2026-05-06 18:04 40.52127 -3.55935 1963 ft 179 kts
2026-05-06 18:04 40.53377 -3.55949 2615 ft 177 kts
2026-05-06 18:05 40.54608 -3.55782 3292 ft 181 kts 15°
2026-05-06 18:05 40.55844 -3.55295 3832 ft 190 kts 17°
2026-05-06 18:05 40.57137 -3.54765 4334 ft 200 kts 19°
2026-05-06 18:05 40.58537 -3.54181 4600 ft 222 kts 19°
2026-05-06 18:06 40.59926 -3.53220 5004 ft 232 kts 39°
2026-05-06 18:06 40.61190 -3.51811 5580 ft 241 kts 41°
2026-05-06 18:06 40.62354 -3.50158 6093 ft 258 kts 62°
2026-05-06 18:06 40.62839 -3.47834 6586 ft 272 kts 92°
2026-05-06 18:07 40.62348 -3.45433 7331 ft 277 kts 120°
2026-05-06 18:07 40.61316 -3.43283 8173 ft 280 kts 123°
2026-05-06 18:07 40.60269 -3.41144 9034 ft 283 kts 123°
2026-05-06 18:07 40.59198 -3.38953 9883 ft 286 kts 123°
2026-05-06 18:08 40.58090 -3.36684 10439 ft 301 kts 123°
2026-05-06 18:08 40.56929 -3.34306 10693 ft 324 kts 123°
2026-05-06 18:08 40.55688 -3.31770 11200 ft 336 kts 123°
2026-05-06 18:08 40.54397 -3.29132 11928 ft 341 kts 123°
2026-05-06 18:09 40.53113 -3.26500 12678 ft 344 kts 123°
2026-05-06 18:09 40.51814 -3.23837 13418 ft 348 kts 123°
2026-05-06 18:09 40.50519 -3.21182 14094 ft 351 kts 123°
2026-05-06 18:09 40.49173 -3.18427 14736 ft 356 kts 124°
2026-05-06 18:10 40.47843 -3.15716 15315 ft 360 kts 124°
2026-05-06 18:10 40.46476 -3.12932 15914 ft 365 kts 124°
2026-05-06 18:10 40.45092 -3.10114 16515 ft 370 kts 124°
2026-05-06 18:10 40.43691 -3.07260 17092 ft 375 kts 124°
2026-05-06 18:11 40.42266 -3.04362 17637 ft 380 kts 124°
2026-05-06 18:11 40.40821 -3.01429 18181 ft 386 kts 125°
2026-05-06 18:11 40.39354 -2.98455 18677 ft 390 kts 125°
2026-05-06 18:11 40.37869 -2.95452 19178 ft 394 kts 125°
2026-05-06 18:12 40.36372 -2.92423 19700 ft 398 kts 125°
2026-05-06 18:12 40.34863 -2.89356 20212 ft 402 kts 124°
2026-05-06 18:12 40.33394 -2.86225 20713 ft 405 kts 123°
2026-05-06 18:12 40.31958 -2.83029 21195 ft 409 kts 122°
2026-05-06 18:13 40.30535 -2.79781 21689 ft 413 kts 122°
2026-05-06 18:13 40.29104 -2.76499 22175 ft 416 kts 122°
2026-05-06 18:13 40.27658 -2.73197 22642 ft 420 kts 122°
2026-05-06 18:13 40.26186 -2.69870 23089 ft 423 kts 123°
2026-05-06 18:14 40.24692 -2.66529 23535 ft 427 kts 123°
2026-05-06 18:14 40.23179 -2.63169 23898 ft 431 kts 123°
2026-05-06 18:14 40.21652 -2.59785 24268 ft 433 kts 123°
2026-05-06 18:14 40.20114 -2.56382 24674 ft 435 kts 124°
2026-05-06 18:15 40.18564 -2.52962 25069 ft 438 kts 124°
2026-05-06 18:15 40.17011 -2.49532 25445 ft 440 kts 124°
2026-05-06 18:15 40.15449 -2.46074 25823 ft 443 kts 124°
2026-05-06 18:15 40.13882 -2.42603 26192 ft 445 kts 124°
2026-05-06 18:16 40.12306 -2.39113 26565 ft 447 kts 124°
2026-05-06 18:16 40.10716 -2.35603 26927 ft 449 kts 124°
2026-05-06 18:16 40.09116 -2.32083 27290 ft 452 kts 124°
2026-05-06 18:16 40.07508 -2.28552 27645 ft 455 kts 124°
2026-05-06 18:17 40.05886 -2.24989 27971 ft 458 kts 125°
2026-05-06 18:17 40.04255 -2.21406 28316 ft 460 kts 125°
2026-05-06 18:17 40.02616 -2.17809 28657 ft 463 kts 125°
2026-05-06 18:17 40.00967 -2.14198 28978 ft 465 kts 125°
2026-05-06 18:18 39.99305 -2.10566 29304 ft 467 kts 126°
2026-05-06 18:18 39.97635 -2.06922 29621 ft 469 kts 126°
2026-05-06 18:18 39.95961 -2.03264 29928 ft 471 kts 126°
2026-05-06 18:18 39.94279 -1.99586 30200 ft 473 kts 126°
2026-05-06 18:19 39.92589 -1.95904 30459 ft 475 kts 126°
2026-05-06 18:19 39.90888 -1.92203 30700 ft 477 kts 126°
2026-05-06 18:19 39.89181 -1.88489 30914 ft 479 kts 127°
2026-05-06 18:19 39.87467 -1.84760 31202 ft 480 kts 127°
2026-05-06 18:20 39.85754 -1.81038 31543 ft 479 kts 127°
2026-05-06 18:20 39.84040 -1.77328 31862 ft 479 kts 127°
2026-05-06 18:20 39.80651 -1.70007 31934 ft 465 kts 127°
2026-05-06 18:21 39.77332 -1.62850 31946 ft 460 kts 128°
2026-05-06 18:21 39.74033 -1.55759 31950 ft 459 kts 128°
2026-05-06 18:22 39.70725 -1.48679 31957 ft 459 kts 128°
2026-05-06 18:22 39.67414 -1.41597 31965 ft 459 kts 128°
2026-05-06 18:23 39.64099 -1.34506 31968 ft 459 kts 128°
2026-05-06 18:23 39.60788 -1.27437 31969 ft 459 kts 128°
2026-05-06 18:24 39.57488 -1.20418 31969 ft 458 kts 128°
2026-05-06 18:24 39.54171 -1.13371 31950 ft 459 kts 128°
2026-05-06 18:25 39.50972 -1.06172 31934 ft 463 kts 126°
2026-05-06 18:25 39.47843 -0.98879 31934 ft 464 kts 126°
2026-05-06 18:26 39.44678 -0.91582 31927 ft 465 kts 127°
2026-05-06 18:26 39.41489 -0.84311 31927 ft 465 kts 127°
2026-05-06 18:27 39.38276 -0.77034 31820 ft 467 kts 127°
2026-05-06 18:27 39.36665 -0.73396 31537 ft 466 kts 127°
2026-05-06 18:27 39.35054 -0.69760 31282 ft 465 kts 127°
2026-05-06 18:28 39.33448 -0.66140 31016 ft 463 kts 127°
2026-05-06 18:28 39.31851 -0.62541 30762 ft 461 kts 127°
2026-05-06 18:28 39.30257 -0.58952 30508 ft 459 kts 127°
2026-05-06 18:28 39.28741 -0.55325 30265 ft 462 kts 121°
2026-05-06 18:29 39.27609 -0.51424 29958 ft 465 kts 111°
2026-05-06 18:29 39.26760 -0.47409 29344 ft 463 kts 110°
2026-05-06 18:29 39.25931 -0.43415 28794 ft 458 kts 110°
2026-05-06 18:29 39.25131 -0.39537 28254 ft 454 kts 110°
2026-05-06 18:30 39.24324 -0.35619 27718 ft 450 kts 109°
2026-05-06 18:30 39.23520 -0.31731 27180 ft 446 kts 109°
2026-05-06 18:30 39.22719 -0.27889 26664 ft 442 kts 109°
2026-05-06 18:30 39.21919 -0.24079 26157 ft 438 kts 109°
2026-05-06 18:31 39.21135 -0.20355 25671 ft 433 kts 109°
2026-05-06 18:31 39.20357 -0.16673 25197 ft 429 kts 109°
2026-05-06 18:31 39.19573 -0.12981 24724 ft 425 kts 108°
2026-05-06 18:31 39.18798 -0.09331 24261 ft 420 kts 108°
2026-05-06 18:32 39.18032 -0.05714 23794 ft 417 kts 108°
2026-05-06 18:32 39.17271 -0.02128 23294 ft 413 kts 107°
2026-05-06 18:32 39.16515 0.01421 22809 ft 408 kts 108°
2026-05-06 18:32 39.15768 0.04920 22352 ft 403 kts 108°
2026-05-06 18:33 39.15029 0.08376 21900 ft 399 kts 108°
2026-05-06 18:33 39.14294 0.11816 21432 ft 396 kts 108°
2026-05-06 18:33 39.13565 0.15227 20976 ft 393 kts 107°
2026-05-06 18:33 39.12841 0.18612 20500 ft 391 kts 107°
2026-05-06 18:34 39.12117 0.21976 20021 ft 389 kts 108°
2026-05-06 18:34 39.11395 0.25315 19572 ft 387 kts 108°
2026-05-06 18:34 39.10681 0.28627 19097 ft 385 kts 108°
2026-05-06 18:34 39.09966 0.31946 18627 ft 384 kts 107°
2026-05-06 18:35 39.09250 0.35262 18154 ft 384 kts 107°
2026-05-06 18:35 39.08537 0.38564 17655 ft 382 kts 107°
2026-05-06 18:35 39.07826 0.41842 17208 ft 379 kts 107°
2026-05-06 18:35 39.07117 0.45095 16748 ft 376 kts 107°
2026-05-06 18:36 39.06414 0.48324 16305 ft 373 kts 107°
2026-05-06 18:36 39.05718 0.51533 15865 ft 371 kts 107°
2026-05-06 18:36 39.05029 0.54719 15422 ft 369 kts 107°
2026-05-06 18:36 39.04342 0.57885 14989 ft 366 kts 107°
2026-05-06 18:37 39.03663 0.60996 14546 ft 359 kts 107°
2026-05-06 18:37 39.03218 0.63031 14278 ft 355 kts 107°
2026-05-06 18:37 39.02297 0.67060 13703 ft 347 kts 111°
2026-05-06 18:37 39.01283 0.69839 13250 ft 340 kts 119°
2026-05-06 18:38 39.00190 0.72506 12908 ft 332 kts 119°
2026-05-06 18:38 38.99143 0.75072 12775 ft 317 kts 119°
2026-05-06 18:38 38.98140 0.77533 12644 ft 304 kts 119°
2026-05-06 18:38 38.97192 0.79861 12516 ft 292 kts 119°
2026-05-06 18:39 38.96264 0.82134 12325 ft 283 kts 119°
2026-05-06 18:39 38.95357 0.84353 12070 ft 278 kts 119°
2026-05-06 18:39 38.94460 0.86546 11774 ft 277 kts 118°
2026-05-06 18:40 38.92654 0.90946 11118 ft 278 kts 118°
2026-05-06 18:40 38.91754 0.93139 10783 ft 278 kts 118°
2026-05-06 18:40 38.90859 0.95323 10470 ft 277 kts 118°
2026-05-06 18:40 38.89802 0.97356 10146 ft 273 kts 133°
2026-05-06 18:41 38.88333 0.98867 9826 ft 268 kts 155°
2026-05-06 18:41 38.86587 0.99550 9690 ft 261 kts 177°
2026-05-06 18:41 38.84815 0.99333 9422 ft 254 kts 200°
2026-05-06 18:41 38.83290 0.98276 9104 ft 249 kts 220°
2026-05-06 18:42 38.81919 0.96936 8787 ft 247 kts 219°
2026-05-06 18:42 38.80551 0.95606 8455 ft 246 kts 219°
2026-05-06 18:42 38.79187 0.94285 8131 ft 245 kts 219°
2026-05-06 18:42 38.77830 0.92974 7800 ft 244 kts 218°
2026-05-06 18:43 38.76475 0.91667 7463 ft 243 kts 218°
2026-05-06 18:43 38.75104 0.90400 7142 ft 242 kts 209°
2026-05-06 18:43 38.73542 0.89711 7038 ft 238 kts 186°
2026-05-06 18:43 38.71909 0.89922 6860 ft 237 kts 159°
2026-05-06 18:44 38.70566 0.91047 6641 ft 234 kts 131°
2026-05-06 18:44 38.69783 0.92833 6417 ft 231 kts 103°
2026-05-06 18:44 38.69731 0.94855 6178 ft 228 kts 77°
2026-05-06 18:44 38.70339 0.96698 5944 ft 225 kts 62°
2026-05-06 18:45 38.71079 0.98446 5716 ft 222 kts 62°
2026-05-06 18:45 38.71807 1.00174 5506 ft 219 kts 62°
2026-05-06 18:45 38.72520 1.01873 5292 ft 214 kts 62°
2026-05-06 18:45 38.72994 1.03005 5152 ft 211 kts 62°
2026-05-06 18:46 38.73878 1.05115 4889 ft 196 kts 63°
2026-05-06 18:46 38.74508 1.06620 4686 ft 188 kts 62°
2026-05-06 18:46 38.75108 1.08054 4517 ft 177 kts 63°
2026-05-06 18:46 38.75672 1.09405 4343 ft 167 kts 63°
2026-05-06 18:47 38.76197 1.10661 4260 ft 155 kts 63°
2026-05-06 18:47 38.76696 1.11854 4112 ft 150 kts 63°
2026-05-06 18:47 38.77187 1.13030 3937 ft 149 kts 63°
2026-05-06 18:47 38.77673 1.14196 3747 ft 148 kts 64°
2026-05-06 18:48 38.77992 1.14960 3614 ft 147 kts 64°
2026-05-06 18:48 38.78476 1.16122 3425 ft 148 kts 64°
2026-05-06 18:48 38.78965 1.17293 3226 ft 150 kts 64°
2026-05-06 18:48 38.79456 1.18470 3034 ft 149 kts 64°
2026-05-06 18:49 38.79943 1.19639 2834 ft 148 kts 64°
2026-05-06 18:49 38.80427 1.20801 2636 ft 148 kts 64°
2026-05-06 18:49 38.80909 1.21957 2443 ft 147 kts 63°
2026-05-06 18:49 38.81387 1.23106 2273 ft 142 kts 64°
2026-05-06 18:50 38.81845 1.24206 2074 ft 137 kts 64°
2026-05-06 18:50 38.82289 1.25274 1881 ft 135 kts 63°
2026-05-06 18:50 38.82728 1.26329 1706 ft 133 kts 64°
2026-05-06 18:50 38.83164 1.27380 1527 ft 133 kts 63°
2026-05-06 18:51 38.83599 1.28424 1350 ft 133 kts 62°
2026-05-06 18:51 38.84033 1.29470 1160 ft 133 kts 63°
2026-05-06 18:51 38.84466 1.30513 990 ft 132 kts 64°
2026-05-06 18:51 38.84902 1.31562 805 ft 134 kts 64°
2026-05-06 18:52 38.85341 1.32621 633 ft 135 kts 63°
2026-05-06 18:52 38.85781 1.33680 450 ft 134 kts 64°
2026-05-06 18:52 38.86217 1.34731 272 ft 133 kts 64°
2026-05-06 18:52 38.86650 1.35769 63 ft 131 kts 64°
2026-05-06 18:53 38.87058 1.36763 10 ft 109 kts 61°
2026-05-06 18:53 38.87273 1.37279 11 ft 22 kts 62°
2026-05-06 18:53 38.87329 1.37388 10 ft 16 kts 44°
2026-05-06 18:53 38.87414 1.37469 10 ft 13 kts 34°
2026-05-06 18:54 38.87473 1.37517 9 ft 7 kts 32°
2026-05-06 18:54 38.87515 1.37549 9 ft 7 kts 26°
2026-05-06 18:54 38.87552 1.37534 9 ft 5 kts 301°
2026-05-06 18:54 38.87546 1.37493 9 ft 5 kts 246°
2026-05-06 18:55 38.87529 1.37454 9 ft 5 kts 240°
2026-05-06 18:55 38.87509 1.37410 9 ft 9 kts 240°
2026-05-06 18:55 38.87473 1.37325 9 ft 12 kts 242°
2026-05-06 18:55 38.87431 1.37221 9 ft 13 kts 242°
2026-05-06 18:56 38.87392 1.37126 9 ft 11 kts 242°
2026-05-06 18:56 38.87357 1.37041 9 ft 10 kts 242°
2026-05-06 18:56 38.87326 1.36965 9 ft 9 kts 242°
2026-05-06 18:56 38.87298 1.36895 9 ft 7 kts 250°
2026-05-06 18:57 38.87318 1.36850 9 ft 6 kts 329°
2026-05-06 18:57 38.87353 1.36828 8 ft 6 kts 334°
2026-05-06 18:57 38.87391 1.36805 10 ft 6 kts 334°
2026-05-06 18:57 38.87419 1.36777 8 ft 5 kts 304°
2026-05-06 18:58 38.87413 1.36742 8 ft 5 kts 242°
2026-05-06 18:58 38.87390 1.36685 9 ft 8 kts 243°
2026-05-06 18:58 38.87363 1.36618 10 ft 8 kts 242°
2026-05-06 18:58 38.87337 1.36558 8 ft 7 kts 241°
2026-05-06 18:59 38.87352 1.36515 10 ft 5 kts 320°
2026-05-06 18:59 38.87381 1.36497 8 ft 4 kts 347°
2026-05-06 18:59 38.87400 1.36500 8 ft 1 kts
2026-05-06 18:59 38.87401 1.36500 8 ft 0 kts 10°